Location: Lac Lasalle
(46.0398°N, 74.1576°W)
Time: 03:09:33
(UTC-05:00)

LilacSat-2 - Visible Passes

Search period start: 12 December 2019 00:00
Search period end: 22 December 2019 00:00
Orbit: 514 x 534 km, 97.5° (Epoch: 11 December)

Date Brightness Start Highest point End Pass type
(mag) Time Alt. Az. Time Alt. Az. Time Alt. Az.
12 Dec ? 04:56:09 10° NE 04:58:54 18° E 05:01:38 10° SE visible
12 Dec ? 06:29:40 10° N 06:33:16 37° WNW 06:36:50 10° SW visible
12 Dec ? 17:12:59 10° S 17:16:42 53° W 17:20:29 10° NNW visible
13 Dec ? 04:44:34 10° ENE 04:46:36 14° E 04:48:36 10° ESE visible
13 Dec ? 06:17:20 10° N 06:21:07 51° WNW 06:24:52 10° SSW visible
13 Dec ? 17:00:42 10° S 17:04:29 76° W 17:08:20 10° NNW visible
14 Dec ? 06:05:04 10° N 06:08:57 71° WNW 06:12:48 10° SSW visible
14 Dec ? 16:48:29 10° SSE 16:52:17 78° ENE 16:56:09 10° N visible
15 Dec ? 05:52:51 10° NNE 05:56:45 83° E 06:00:37 10° S visible
15 Dec ? 18:13:04 10° WSW 18:14:41 12° W 18:16:20 10° WNW visible
16 Dec ? 05:40:42 10° NNE 05:44:32 59° E 05:48:21 10° S visible
16 Dec ? 17:59:51 10° SW 18:02:22 17° W 18:04:55 10° NW visible
17 Dec ? 05:28:36 10° NNE 05:32:19 42° E 05:35:59 10° S visible
17 Dec ? 17:47:01 10° SSW 17:50:04 22° W 17:53:08 10° NW visible
18 Dec ? 05:16:35 10° NNE 05:20:03 30° E 05:23:30 10° SSE visible
18 Dec ? 06:51:04 10° NNW 06:54:08 23° WNW 06:57:12 10° WSW visible
18 Dec ? 17:34:23 10° SSW 17:37:47 30° W 17:41:14 10° NNW visible
19 Dec ? 05:04:39 10° NE 05:07:47 23° E 05:10:52 10° SSE visible
19 Dec ? 06:38:36 10° N 06:42:01 30° WNW 06:45:25 10° SW visible
19 Dec ? 17:21:54 10° S 17:25:31 42° W 17:29:13 10° NNW visible
20 Dec ? 04:52:53 10° NE 04:55:28 17° E 04:58:02 10° SE visible
20 Dec ? 06:26:14 10° N 06:29:53 40° WNW 06:33:30 10° SW visible
20 Dec ? 17:09:31 10° S 17:13:17 59° W 17:17:07 10° NNW visible
21 Dec ? 04:41:26 10° ENE 04:43:09 13° E 04:44:51 10° ESE visible
21 Dec ? 06:13:55 10° N 06:17:43 56° WNW 06:21:30 10° SSW visible
21 Dec ? 16:57:14 10° SSE 17:01:04 83° WSW 17:04:57 10° NNW visible
